Showing default

COSMOS 2271, 23002

Orbit data source: Space-Track

COSMOS 2271, 23002 is a payload satellite owned by VKS (CIS) in LEO that was launched on Sat, 12 Feb 1994 UTC via a TSIKLON-3 launch vehicle from the Plesetsk Missile And Space Complex (PKMTR). Payload-class satellites include a variety of spacecraft equipped with specific instruments for various scientific and technological missions. These include communications satellites like Starlink; space stations such as the ISS; scientific satellites like the Hubble; Earth observation satellites from companies like Planet Labs, Umbra, and HawkEye 360; GPS; miniature CubeSats for education and research; and military/defense satellites.

Loading next visibility...
Identifier
23002, 1994-011D
Orbit
LEO
Country
Flag of CISCIS
Related business
Manufacturer
NPO PM
Mission
Defense Communications
Bus & Motor
STRELA-3, Unknown motor
Mass
225 kg wet, 225 kg dry
Launch date (UTC)
1994-02-12 (32 years ago)
Launch vehicle
TSIKLON-3
Launch site
Plesetsk Missile And Space Complex (PKMTR)
Object type
Payload
Rocket body
Debris
Shape & HBR
Cyl, 0.8 m
Radar Cross Section
1.257 m², Medium (>0.1 m² and < 1m²)

Expand to show TLE details & history
Last TLE update: 10 hours ago

TLE from 10 hours ago
0 COSMOS 2271
1 23002U 94011D   26035.45801607  .00000023  00000-0  68647-4 0  9999
2 23002  82.5657  22.2727 0007812 126.8087 233.3722 12.63518833474720
Epoch: 2026-02-04T10:59Z
TLE epoch observation values (Epoch: 2026-02-04T10:59:32.588Z)
Latitude
-0.00007°
Longitude
82.7626°
Altitude
1,414.818 km
Speed
7.152 km/s
True Right ascension
01h 29m 05s
True Declination
0° 00' 00"
Sunlit
Object was in daylight at epoch
Visualization orbit readout
Latitude
Unknown
Longitude
Unknown
Altitude
Unknown
Speed
Unknown
Apparent Right ascension
Unknown
Apparent Declination
Unknown
Sunlit
N/A
Visualization observer readout
Local Sidereal Time
23:26:35
Azimuth
Unknown
Elevation
Unknown
Doppler factor
Unknown
Orbital elements
Apogee altitude
1,411.854 km
Perigee altitude
1,399.693 km
Semi-major axis
7,783.91 km
Eccentricity
0.00078
Inclination
82.5657°
RAAN
22.2727°
Arg. of periapsis
126.8087°
True anomaly
233.3004°
Mean anomaly
233.3722°
Eccentric anomaly
233.3363°
Mean motion
3.16043 °/min
Orbital period
113.91 mins
BSTAR
0.000068647
Loading maneuver chart data...
Computing Atmospheric mass density...
Loading historical data...
Loading historical data...
Loading historical data...
Loading historical data...
Loading historical data...
Loading historical data...
Loading historical data...

Documentation

Showing up to 5 results
|